Time,TemperatureF,DewpointF,PressureIn,WindDirection,WindDirectionDegrees,WindSpeedMPH,WindSpeedGustMPH,Humidity,HourlyPrecipIn,Conditions,Clouds,dailyrainin,SoftwareType,DateUTC
2013-03-20 00:14:00,32.9,17.0,30.21,South,169,0.0,3.0,53,0.00,,,0.00,weatherlink.com 1.10,2013-03-20 06:14:00,
2013-03-20 00:29:00,32.0,17.0,30.22,South,169,0.0,1.0,54,0.00,,,0.00,weatherlink.com 1.10,2013-03-20 06:29:00,
2013-03-20 00:44:00,31.5,17.0,30.23,South,169,0.0,2.0,56,0.00,,,0.00,weatherlink.com 1.10,2013-03-20 06:44:00,
2013-03-20 00:59:00,30.5,18.0,30.23,South,169,2.0,3.0,59,0.00,,,0.00,weatherlink.com 1.10,2013-03-20 06:59:00,
2013-03-20 01:14:00,30.5,18.0,30.24,South,169,2.0,4.0,59,0.00,,,0.00,weatherlink.com 1.10,2013-03-20 07:14:00,
2013-03-20 01:29:00,30.7,17.0,30.25,South,169,0.0,2.0,58,0.00,,,0.00,weatherlink.com 1.10,2013-03-20 07:29:00,
2013-03-20 01:44:00,29.5,17.0,30.25,South,169,2.0,2.0,60,0.00,,,0.00,weatherlink.com 1.10,2013-03-20 07:44:00,
2013-03-20 01:59:00,28.7,17.0,30.25,South,169,0.0,2.0,63,0.00,,,0.00,weatherlink.com 1.10,2013-03-20 07:59:00,
2013-03-20 02:14:00,29.0,17.0,30.25,South,169,0.0,2.0,62,0.00,,,0.00,weatherlink.com 1.10,2013-03-20 08:14:00,
2013-03-20 02:29:00,29.1,17.0,30.26,South,169,1.0,3.0,61,0.00,,,0.00,weatherlink.com 1.10,2013-03-20 08:29:00,
2013-03-20 02:44:00,29.5,17.0,30.26,South,169,0.0,3.0,61,0.00,,,0.00,weatherlink.com 1.10,2013-03-20 08:44:00,
2013-03-20 02:59:00,29.2,18.0,30.26,South,169,0.0,3.0,62,0.00,,,0.00,weatherlink.com 1.10,2013-03-20 08:59:00,
2013-03-20 03:14:00,28.7,17.0,30.26,South,169,1.0,2.0,63,0.00,,,0.00,weatherlink.com 1.10,2013-03-20 09:14:00,
2013-03-20 03:29:00,28.4,18.0,30.26,South,169,1.0,3.0,64,0.00,,,0.00,weatherlink.com 1.10,2013-03-20 09:29:00,
2013-03-20 03:44:00,28.1,17.0,30.26,South,169,0.0,3.0,64,0.00,,,0.00,weatherlink.com 1.10,2013-03-20 09:44:00,
2013-03-20 03:59:00,27.7,17.0,30.26,South,169,0.0,3.0,65,0.00,,,0.00,weatherlink.com 1.10,2013-03-20 09:59:00,
2013-03-20 04:14:00,27.5,17.0,30.25,South,169,0.0,3.0,65,0.00,,,0.00,weatherlink.com 1.10,2013-03-20 10:14:00,
2013-03-20 04:29:00,27.6,17.0,30.25,South,169,0.0,2.0,64,0.00,,,0.00,weatherlink.com 1.10,2013-03-20 10:29:00,
2013-03-20 04:44:00,27.6,17.0,30.25,South,169,1.0,3.0,64,0.00,,,0.00,weatherlink.com 1.10,2013-03-20 10:44:00,
2013-03-20 04:59:00,27.5,17.0,30.26,South,169,1.0,3.0,64,0.00,,,0.00,weatherlink.com 1.10,2013-03-20 10:59:00,
2013-03-20 05:14:00,27.4,17.0,30.26,South,169,0.0,3.0,65,0.00,,,0.00,weatherlink.com 1.10,2013-03-20 11:14:00,
2013-03-20 05:29:00,27.8,17.0,30.26,South,169,0.0,3.0,63,0.00,,,0.00,weatherlink.com 1.10,2013-03-20 11:29:00,
2013-03-20 05:44:00,27.2,16.0,30.26,South,169,0.0,2.0,64,0.00,,,0.00,weatherlink.com 1.10,2013-03-20 11:44:00,
2013-03-20 05:59:00,26.5,16.0,30.26,South,169,0.0,2.0,66,0.00,,,0.00,weatherlink.com 1.10,2013-03-20 11:59:00,
2013-03-20 06:14:00,26.2,17.0,30.27,South,169,0.0,3.0,67,0.00,,,0.00,weatherlink.com 1.10,2013-03-20 12:14:00,
2013-03-20 06:29:00,25.7,16.0,30.28,South,169,0.0,0.0,68,0.00,,,0.00,weatherlink.com 1.10,2013-03-20 12:29:00,
2013-03-20 06:45:00,24.9,16.0,30.28,South,169,1.0,2.0,70,0.00,,,0.00,weatherlink.com 1.10,2013-03-20 12:45:00,
2013-03-20 07:00:00,24.9,17.0,30.28,South,169,0.0,3.0,71,0.00,,,0.00,weatherlink.com 1.10,2013-03-20 13:00:00,
2013-03-20 07:15:00,25.0,16.0,30.27,South,169,0.0,2.0,69,0.00,,,0.00,weatherlink.com 1.10,2013-03-20 13:15:00,
2013-03-20 07:30:00,24.4,16.0,30.27,South,169,0.0,0.0,69,0.00,,,0.00,weatherlink.com 1.10,2013-03-20 13:30:00,
2013-03-20 07:45:00,24.0,16.0,30.28,South,169,0.0,2.0,71,0.00,,,0.00,weatherlink.com 1.10,2013-03-20 13:45:00,
2013-03-20 08:00:00,24.3,16.0,30.28,South,169,0.0,0.0,71,0.00,,,0.00,weatherlink.com 1.10,2013-03-20 14:00:00,
2013-03-20 08:15:00,27.5,18.0,30.28,South,169,0.0,0.0,68,0.00,,,0.00,weatherlink.com 1.10,2013-03-20 14:15:00,
2013-03-20 08:30:00,30.8,18.0,30.28,South,169,0.0,1.0,59,0.00,,,0.00,weatherlink.com 1.10,2013-03-20 14:30:00,
2013-03-20 08:45:00,33.1,18.0,30.29,South,169,0.0,1.0,54,0.00,,,0.00,weatherlink.com 1.10,2013-03-20 14:45:00,
2013-03-20 09:00:00,35.3,18.0,30.29,South,169,0.0,4.0,49,0.00,,,0.00,weatherlink.com 1.10,2013-03-20 15:00:00,
2013-03-20 09:15:00,35.8,18.0,30.29,SSE,164,0.0,4.0,48,0.00,,,0.00,weatherlink.com 1.10,2013-03-20 15:15:00,
2013-03-20 09:30:00,36.0,17.0,30.29,SSE,164,0.0,5.0,47,0.00,,,0.00,weatherlink.com 1.10,2013-03-20 15:30:00,
2013-03-20 09:45:00,37.1,18.0,30.29,SE,146,5.0,5.0,46,0.00,,,0.00,weatherlink.com 1.10,2013-03-20 15:45:00,
2013-03-20 10:00:00,38.4,19.0,30.29,SE,130,0.0,6.0,45,0.00,,,0.00,weatherlink.com 1.10,2013-03-20 16:00:00,
2013-03-20 10:15:00,40.1,19.0,30.28,ESE,106,1.0,7.0,42,0.00,,,0.00,weatherlink.com 1.10,2013-03-20 16:15:00,
2013-03-20 10:31:00,40.8,19.0,30.28,NE,48,5.0,7.0,42,0.00,,,0.00,weatherlink.com 1.10,2013-03-20 16:31:00,
2013-03-20 10:46:00,41.6,19.0,30.26,NE,34,0.0,5.0,40,0.00,,,0.00,weatherlink.com 1.10,2013-03-20 16:46:00,
2013-03-20 11:01:00,42.4,19.0,30.26,NNE,30,2.0,5.0,40,0.00,,,0.00,weatherlink.com 1.10,2013-03-20 17:01:00,
2013-03-20 11:16:00,44.2,19.0,30.25,NNE,27,0.0,6.0,37,0.00,,,0.00,weatherlink.com 1.10,2013-03-20 17:16:00,
2013-03-20 11:46:00,45.9,20.0,30.22,North,349,0.0,6.0,36,0.00,,,0.00,weatherlink.com 1.10,2013-03-20 17:46:00,
2013-03-20 12:01:00,47.7,20.0,30.22,NNW,337,6.0,7.0,34,0.00,,,0.00,weatherlink.com 1.10,2013-03-20 18:01:00,
2013-03-20 12:16:00,48.0,20.0,30.20,NW,322,4.0,8.0,33,0.00,,,0.00,weatherlink.com 1.10,2013-03-20 18:16:00,
2013-03-20 12:31:00,47.3,20.0,30.20,WNW,294,0.0,4.0,34,0.00,,,0.00,weatherlink.com 1.10,2013-03-20 18:31:00,
2013-03-20 12:46:00,48.2,19.0,30.17,WNW,297,0.0,6.0,32,0.00,,,0.00,weatherlink.com 1.10,2013-03-20 18:46:00,
2013-03-20 13:01:00,50.6,21.0,30.16,NNW,331,0.0,7.0,31,0.00,,,0.00,weatherlink.com 1.10,2013-03-20 19:01:00,
2013-03-20 13:16:00,51.4,21.0,30.14,NW,308,4.0,7.0,30,0.00,,,0.00,weatherlink.com 1.10,2013-03-20 19:16:00,
2013-03-20 13:31:00,51.6,21.0,30.12,WNW,290,2.0,10.0,30,0.00,,,0.00,weatherlink.com 1.10,2013-03-20 19:31:00,
2013-03-20 13:46:00,53.3,22.0,30.11,West,267,5.0,12.0,29,0.00,,,0.00,weatherlink.com 1.10,2013-03-20 19:46:00,
2013-03-20 14:01:00,53.9,21.0,30.11,West,273,5.0,12.0,28,0.00,,,0.00,weatherlink.com 1.10,2013-03-20 20:01:00,
2013-03-20 14:16:00,53.8,20.0,30.09,West,261,5.0,14.0,27,0.00,,,0.00,weatherlink.com 1.10,2013-03-20 20:16:00,
2013-03-20 14:31:00,54.0,21.0,30.08,West,267,5.0,14.0,27,0.00,,,0.00,weatherlink.com 1.10,2013-03-20 20:31:00,
2013-03-20 14:46:00,52.8,19.0,30.07,WNW,298,11.0,18.0,27,0.00,,,0.00,weatherlink.com 1.10,2013-03-20 20:46:00,
2013-03-20 15:01:00,53.4,21.0,30.06,West,279,5.0,13.0,28,0.00,,,0.00,weatherlink.com 1.10,2013-03-20 21:01:00,
2013-03-20 15:16:00,54.5,21.0,30.05,WNW,287,2.0,16.0,27,0.00,,,0.00,weatherlink.com 1.10,2013-03-20 21:16:00,
2013-03-20 15:31:00,54.5,21.0,30.04,West,277,8.0,14.0,27,0.00,,,0.00,weatherlink.com 1.10,2013-03-20 21:31:00,
2013-03-20 15:46:00,54.2,21.0,30.02,WNW,286,14.0,14.0,27,0.00,,,0.00,weatherlink.com 1.10,2013-03-20 21:46:00,
2013-03-20 16:02:00,55.2,21.0,30.01,WSW,248,10.0,16.0,26,0.00,,,0.00,weatherlink.com 1.10,2013-03-20 22:02:00,
2013-03-20 16:17:00,54.1,21.0,30.01,West,266,6.0,17.0,27,0.00,,,0.00,weatherlink.com 1.10,2013-03-20 22:17:00,
2013-03-20 16:32:00,52.9,20.0,30.01,West,269,5.0,15.0,28,0.00,,,0.00,weatherlink.com 1.10,2013-03-20 22:32:00,
2013-03-20 16:47:00,52.7,20.0,30.01,West,265,5.0,17.0,28,0.00,,,0.00,weatherlink.com 1.10,2013-03-20 22:47:00,
2013-03-20 17:02:00,52.3,21.0,30.00,WSW,246,7.0,13.0,29,0.00,,,0.00,weatherlink.com 1.10,2013-03-20 23:02:00,
2013-03-20 17:17:00,52.1,21.0,30.00,West,263,7.0,19.0,29,0.00,,,0.00,weatherlink.com 1.10,2013-03-20 23:17:00,
2013-03-20 17:32:00,51.8,22.0,30.00,WSW,250,4.0,17.0,31,0.00,,,0.00,weatherlink.com 1.10,2013-03-20 23:32:00,
2013-03-20 17:46:00,52.0,21.0,30.00,West,273,6.0,18.0,30,0.00,,,0.00,weatherlink.com 1.10,2013-03-20 23:46:00,
2013-03-20 18:02:00,51.5,21.0,30.00,WSW,255,4.0,10.0,30,0.00,,,0.00,weatherlink.com 1.10,2013-03-21 00:02:00,
2013-03-20 18:17:00,51.1,20.0,29.99,West,272,3.0,8.0,30,0.00,,,0.00,weatherlink.com 1.10,2013-03-21 00:17:00,
2013-03-20 18:32:00,50.8,21.0,29.99,West,277,4.0,10.0,31,0.00,,,0.00,weatherlink.com 1.10,2013-03-21 00:32:00,
2013-03-20 18:47:00,50.5,21.0,29.98,West,279,0.0,7.0,31,0.00,,,0.00,weatherlink.com 1.10,2013-03-21 00:47:00,
2013-03-20 19:02:00,49.9,22.0,29.98,West,280,0.0,3.0,34,0.00,,,0.00,weatherlink.com 1.10,2013-03-21 01:02:00,
2013-03-20 19:17:00,49.2,22.0,29.98,West,280,0.0,2.0,35,0.00,,,0.00,weatherlink.com 1.10,2013-03-21 01:17:00,
2013-03-20 19:32:00,48.8,22.0,29.97,West,280,0.0,2.0,35,0.00,,,0.00,weatherlink.com 1.10,2013-03-21 01:32:00,
2013-03-20 19:47:00,48.4,22.0,29.97,West,280,0.0,0.0,36,0.00,,,0.00,weatherlink.com 1.10,2013-03-21 01:47:00,
2013-03-20 20:02:00,47.7,22.0,29.97,West,280,0.0,4.0,37,0.00,,,0.00,weatherlink.com 1.10,2013-03-21 02:02:00,
2013-03-20 20:17:00,47.5,23.0,29.97,West,276,0.0,9.0,38,0.00,,,0.00,weatherlink.com 1.10,2013-03-21 02:17:00,
2013-03-20 20:32:00,47.4,23.0,29.98,West,277,0.0,2.0,39,0.00,,,0.00,weatherlink.com 1.10,2013-03-21 02:32:00,
2013-03-20 20:47:00,47.0,24.0,29.98,West,277,0.0,1.0,40,0.00,,,0.00,weatherlink.com 1.10,2013-03-21 02:47:00,
2013-03-20 21:02:00,46.2,24.0,29.97,West,277,0.0,2.0,42,0.00,,,0.00,weatherlink.com 1.10,2013-03-21 03:02:00,
2013-03-20 21:17:00,46.0,24.0,29.97,West,277,0.0,5.0,42,0.00,,,0.00,weatherlink.com 1.10,2013-03-21 03:17:00,
2013-03-20 21:32:00,45.8,24.0,29.96,West,277,0.0,1.0,43,0.00,,,0.00,weatherlink.com 1.10,2013-03-21 03:32:00,
2013-03-20 21:47:00,44.9,25.0,29.96,West,277,0.0,0.0,45,0.00,,,0.00,weatherlink.com 1.10,2013-03-21 03:47:00,
2013-03-20 22:02:00,44.0,25.0,29.95,West,277,0.0,1.0,47,0.00,,,0.00,weatherlink.com 1.10,2013-03-21 04:02:00,
2013-03-20 22:17:00,43.1,24.0,29.95,West,277,0.0,1.0,47,0.00,,,0.00,weatherlink.com 1.10,2013-03-21 04:17:00,
2013-03-20 22:47:00,42.4,24.0,29.95,West,276,0.0,2.0,49,0.00,,,0.00,weatherlink.com 1.10,2013-03-21 04:47:00,
2013-03-20 23:02:00,42.5,25.0,29.94,West,276,0.0,4.0,50,0.00,,,0.00,weatherlink.com 1.10,2013-03-21 05:02:00,
2013-03-20 23:17:00,42.7,25.0,29.93,West,276,0.0,3.0,49,0.00,,,0.00,weatherlink.com 1.10,2013-03-21 05:17:00,
2013-03-20 23:32:00,42.5,25.0,29.93,West,277,1.0,3.0,50,0.00,,,0.00,weatherlink.com 1.10,2013-03-21 05:32:00,
2013-03-20 23:47:00,42.6,25.0,29.92,West,276,0.0,2.0,50,0.00,,,0.00,weatherlink.com 1.10,2013-03-21 05:47:00,